{"data":{"norad_id":43823,"intl_designator":"2018-100A","name":"GEO-KOMPSAT-2A","alt_names":[],"object_type":"PAYLOAD","status":"ACTIVE","operator":null,"country":"SKOR","launch_date":"2018-12-04","launch_site_code":"FRGUI","launch_vehicle":null,"mission":null,"orbit_class":"UNKNOWN","rcs_meters":null,"size_class":null,"mass_kg":null,"dimensions":null,"purposes":["comms","earth_obs"],"wikipedia_slug":null,"has_3d_model":false,"image_url":null,"decayed_at":null,"tle_current":{"epoch":"2026-05-25T04:21:06.264000Z","epoch_age_seconds":53229,"freshness":"FRESH","line1":"1 43823U 18100A   26145.18132250 -.00000346  00000+0  00000+0 0  9992","line2":"2 43823   0.0498 114.8129 0002201 321.1517   0.3472  1.00270978 27395","mean_motion":1.00270978,"eccentricity":0.0002201,"inclination_deg":0.0498,"raan_deg":114.8129,"arg_perigee_deg":321.1517,"mean_anomaly_deg":0.3472,"bstar":0,"rev_number":2739,"period_min":1436.1084620118,"perigee_km":35777.540686804,"apogee_km":35796.101701401,"semimajor_km":42164.958194103,"source":"CELESTRAK","updated_at":"2026-05-25T13:38:14.059096Z"}}}